| time (UTC) | temp F | wind direction | speed knots | gust knots | rain 1hr in | rain 24hr in | rain mn in | humidity % | barometer mb |
| 20260503184516 | 66 | 240 | 2.6 | 5.2 | 0.00 | 0.00 | 0.00 | 44 | 1018.5 |
| 20260503184016 | 66 | 205 | 3.5 | 7.0 | 0.00 | 0.01 | 0.00 | 42 | 1018.6 |
| 20260503183517 | 66 | 174 | 3.5 | 9.6 | 0.00 | 0.01 | 0.00 | 43 | 1018.6 |
| 20260503183017 | 66 | 265 | 3.5 | 11.3 | 0.00 | 0.01 | 0.00 | 44 | 1018.8 |
| 20260503182516 | 66 | 253 | 3.5 | 11.3 | 0.00 | 0.01 | 0.00 | 43 | 1018.8 |
| 20260503182017 | 66 | 220 | 3.5 | 7.8 | 0.00 | 0.01 | 0.00 | 44 | 1018.9 |
| 20260503181517 | 66 | 231 | 3.5 | 7.8 | 0.00 | 0.01 | 0.00 | 45 | 1018.9 |
| 20260503181017 | 66 | 224 | 3.5 | 9.6 | 0.00 | 0.01 | 0.00 | 43 | 1018.9 |
| 20260503180517 | 65 | 201 | 2.6 | 7.0 | 0.00 | 0.01 | 0.00 | 44 | 1018.9 |
| 20260503180017 | 65 | 228 | 2.6 | 5.2 | 0.00 | 0.01 | 0.00 | 44 | 1019.0 |
| 20260503175537 | 65 | 245 | 3.5 | 7.0 | 0.00 | 0.01 | 0.00 | 43 | 1019.1 |
| 20260503175057 | 65 | 199 | 2.6 | 7.0 | 0.00 | 0.01 | 0.00 | 44 | 1019.1 |
| 20260503174517 | 65 | 203 | 3.5 | 7.8 | 0.00 | 0.01 | 0.00 | 45 | 1019.1 |
| 20260503174017 | 65 | 162 | 2.6 | 7.8 | 0.00 | 0.01 | 0.00 | 45 | 1019.1 |
| 20260503173517 | 65 | 176 | 2.6 | 7.8 | 0.00 | 0.01 | 0.00 | 45 | 1019.3 |
| 20260503173017 | 65 | 204 | 3.5 | 8.7 | 0.00 | 0.01 | 0.00 | 45 | 1019.3 |
| 20260503172518 | 64 | 194 | 2.6 | 7.0 | 0.00 | 0.01 | 0.00 | 45 | 1019.3 |
| 20260503172018 | 64 | 178 | 2.6 | 7.0 | 0.00 | 0.01 | 0.00 | 44 | 1019.5 |
| 20260503171518 | 63 | 235 | 4.3 | 9.6 | 0.00 | 0.01 | 0.00 | 44 | 1019.6 |
| 20260503171018 | 63 | 254 | 3.5 | 8.7 | 0.00 | 0.01 | 0.00 | 48 | 1019.6 |
| 20260503170518 | 63 | 258 | 4.3 | 9.6 | 0.00 | 0.01 | 0.00 | 46 | 1019.7 |
| 20260503150517 | 59 | 183 | 2.6 | 6.1 | 0.00 | 0.01 | 0.00 | 56 | 1020.9 |
| 20260503131015 | 48 | 192 | 1.7 | 4.3 | 0.00 | 0.01 | 0.00 | 93 | 1021.1 |
| 20260503130516 | 47 | 207 | 0.9 | 3.5 | 0.00 | 0.01 | 0.00 | 96 | 1021.0 |
| 20260503110517 | 35 | 245 | 0.0 | 0.9 | 0.00 | 0.01 | 0.00 | 99 | 1020.9 |
| 20260503081517 | 37 | 268 | 0.0 | 1.7 | 0.00 | 0.01 | 0.00 | 99 | 1020.3 |
| 20260503081017 | 38 | 244 | 0.0 | 0.9 | 0.00 | 0.01 | 0.00 | 99 | 1020.3 |
| 20260503080518 | 38 | 258 | 0.0 | 1.7 | 0.00 | 0.01 | 0.00 | 99 | 1020.3 |
| 20260503072518 | 39 | 247 | 0.0 | 0.9 | 0.00 | 0.01 | 0.00 | 99 | 1020.1 |
| 20260503072016 | 39 | 300 | 0.0 | 1.7 | 0.00 | 0.01 | 0.00 | 99 | 1020.1 |
| 20260503071518 | 39 | 262 | 0.0 | 0.9 | 0.00 | 0.01 | 0.00 | 99 | 1020.2 |
| 20260503071018 | 39 | 289 | 0.0 | 0.9 | 0.00 | 0.01 | 0.00 | 99 | 1020.2 |
| 20260503070518 | 39 | 278 | 0.0 | 0.9 | 0.00 | 0.01 | 0.00 | 99 | 1020.2 |
| 20260503055016 | 40 | 267 | 0.0 | 0.9 | 0.00 | 0.01 | 0.00 | 99 | 1020.4 |
| 20260503054517 | 40 | 242 | 0.0 | 0.9 | 0.00 | 0.01 | 0.00 | 99 | 1020.4 |
| 20260503054037 | 39 | 246 | 0.0 | 0.9 | 0.00 | 0.01 | 0.00 | 99 | 1020.4 |
| 20260503053516 | 39 | 272 | 0.0 | 0.9 | 0.00 | 0.01 | 0.00 | 99 | 1020.4 |
| 20260503053017 | 40 | 261 | 0.0 | 0.9 | 0.00 | 0.01 | 0.00 | 99 | 1020.5 |
| 20260503052517 | 40 | 269 | 0.0 | 1.7 | 0.00 | 0.01 | 0.00 | 99 | 1020.5 |
| 20260503052017 | 40 | 270 | 0.0 | 1.7 | 0.00 | 0.01 | 0.00 | 99 | 1020.5 |
| 20260503051537 | 40 | 264 | 0.0 | 0.9 | 0.00 | 0.01 | 0.00 | 99 | 1020.5 |
| 20260503051017 | 40 | 248 | 0.0 | 0.9 | 0.00 | 0.01 | 0.00 | 99 | 1020.5 |
| 20260503050517 | 41 | 223 | 0.0 | 1.7 | 0.00 | 0.01 | 0.00 | 99 | 1020.5 |
| 20260503050017 | 41 | 266 | 0.0 | 1.7 | 0.00 | 0.01 | 0.00 | 99 | 1020.4 |
| 20260503045538 | 41 | 257 | 0.9 | 2.6 | 0.00 | 0.01 | 0.00 | 99 | 1020.3 |
| 20260503045018 | 41 | 212 | 0.9 | 1.7 | 0.00 | 0.01 | 0.00 | 99 | 1020.3 |
| 20260503044518 | 41 | 232 | 0.0 | 0.9 | 0.00 | 0.01 | 0.00 | 99 | 1020.3 |
| 20260503044038 | 41 | 282 | 0.9 | 1.7 | 0.00 | 0.01 | 0.00 | 99 | 1020.4 |
| 20260503043518 | 41 | 274 | 0.9 | 1.7 | 0.00 | 0.01 | 0.00 | 100 | 1020.3 |
| 20260503043018 | 42 | 254 | 0.9 | 1.7 | 0.00 | 0.01 | 0.00 | 99 | 1020.3 |
| 20260503042518 | 42 | 278 | 0.9 | 1.7 | 0.00 | 0.01 | 0.00 | 98 | 1020.1 |
| 20260503042018 | 42 | 221 | 0.9 | 1.7 | 0.00 | 0.01 | 0.00 | 98 | 1020.1 |
| 20260503041518 | 42 | 202 | 0.0 | 1.7 | 0.00 | 0.01 | 0.00 | 98 | 1020.0 |
| 20260503041018 | 42 | 185 | 0.9 | 1.7 | 0.00 | 0.01 | 0.00 | 99 | 1020.1 |
| 20260503040656 | 42 | 226 | 0.9 | 2.6 | 0.00 | 0.01 | 0.00 | 99 | 1020.1 |
| 20260503040019 | 42 | 260 | 0.0 | 1.7 | 0.00 | 0.01 | 0.00 | 98 | 1020.1 |
| 20260503035516 | 42 | 296 | 0.9 | 1.7 | 0.00 | 0.01 | 0.00 | 97 | 1020.1 |
| 20260503035016 | 42 | 290 | 0.0 | 1.7 | 0.00 | 0.01 | 0.00 | 96 | 1020.1 |
| 20260503034518 | 43 | 268 | 0.9 | 1.7 | 0.00 | 0.01 | 0.00 | 96 | 1020.1 |
| 20260503034015 | 43 | 228 | 0.0 | 1.7 | 0.00 | 0.01 | 0.00 | 95 | 1020.1 |
| 20260503033516 | 43 | 148 | 0.0 | 1.7 | 0.00 | 0.01 | 0.00 | 95 | 1020.1 |
| 20260503033036 | 43 | 211 | 0.0 | 1.7 | 0.00 | 0.01 | 0.00 | 96 | 1020.2 |
| 20260503032516 | 43 | 196 | 0.0 | 1.7 | 0.00 | 0.01 | 0.00 | 96 | 1020.3 |
| 20260503032035 | 43 | 266 | 0.0 | 1.7 | 0.00 | 0.01 | 0.00 | 95 | 1020.4 |
| 20260503031516 | 43 | 247 | 0.0 | 1.7 | 0.00 | 0.01 | 0.00 | 94 | 1020.4 |
| 20260503031016 | 44 | 269 | 0.0 | 0.9 | 0.00 | 0.01 | 0.00 | 93 | 1020.3 |
| 20260503030516 | 44 | 228 | 0.0 | 0.9 | 0.00 | 0.01 | 0.00 | 92 | 1020.3 |
| 20260503030036 | 44 | 176 | 0.0 | 1.7 | 0.00 | 0.01 | 0.00 | 92 | 1020.3 |
| 20260503025536 | 44 | 192 | 0.0 | 1.7 | 0.00 | 0.01 | 0.00 | 91 | 1020.3 |
| 20260503025016 | 44 | 278 | 0.0 | 1.7 | 0.00 | 0.01 | 0.00 | 90 | 1020.2 |
| 20260503024516 | 44 | 243 | 0.9 | 1.7 | 0.00 | 0.01 | 0.00 | 90 | 1020.2 |
| 20260503024017 | 45 | 215 | 0.0 | 1.7 | 0.00 | 0.01 | 0.00 | 89 | 1020.1 |
| 20260503023517 | 45 | 251 | 0.0 | 1.7 | 0.00 | 0.01 | 0.00 | 88 | 1020.0 |
| 20260503023017 | 45 | 288 | 0.0 | 1.7 | 0.00 | 0.01 | 0.00 | 88 | 1019.9 |
| 20260503022517 | 46 | 283 | 0.9 | 2.6 | 0.00 | 0.01 | 0.00 | 87 | 1019.9 |
| 20260503022017 | 46 | 259 | 0.0 | 0.9 | 0.00 | 0.01 | 0.00 | 85 | 1019.8 |
| 20260503021517 | 46 | 195 | 0.0 | 1.7 | 0.00 | 0.01 | 0.00 | 84 | 1019.8 |
| 20260503021017 | 47 | 269 | 0.0 | 0.9 | 0.00 | 0.01 | 0.00 | 83 | 1019.8 |
| 20260503020557 | 47 | 263 | 0.0 | 1.7 | 0.00 | 0.01 | 0.00 | 82 | 1019.7 |
| 20260503020017 | 47 | 268 | 0.9 | 1.7 | 0.00 | 0.01 | 0.00 | 81 | 1019.7 |
| 20260503015558 | 48 | 296 | 0.0 | 1.7 | 0.00 | 0.01 | 0.00 | 80 | 1019.6 |
| 20260503015017 | 48 | 252 | 0.0 | 0.9 | 0.00 | 0.01 | 0.00 | 78 | 1019.6 |
| 20260503014518 | 49 | 263 | 0.0 | 1.7 | 0.00 | 0.01 | 0.00 | 77 | 1019.4 |
| 20260503014017 | 49 | 283 | 0.0 | 1.7 | 0.00 | 0.01 | 0.00 | 76 | 1019.3 |
| 20260503013517 | 50 | 227 | 0.0 | 0.9 | 0.00 | 0.01 | 0.00 | 74 | 1019.3 |
| 20260503013017 | 50 | 233 | 0.0 | 1.7 | 0.00 | 0.01 | 0.00 | 73 | 1019.2 |
| 20260503012518 | 51 | 147 | 0.0 | 1.7 | 0.00 | 0.01 | 0.00 | 72 | 1019.1 |
| 20260503012018 | 51 | 168 | 0.0 | 1.7 | 0.00 | 0.01 | 0.00 | 71 | 1019.1 |
| 20260503011518 | 52 | 119 | 0.0 | 1.7 | 0.00 | 0.01 | 0.00 | 69 | 1019.0 |
| 20260503011018 | 52 | 39 | 0.0 | 1.7 | 0.00 | 0.01 | 0.00 | 67 | 1019.0 |
| 20260503010518 | 52 | 13 | 0.9 | 1.7 | 0.00 | 0.01 | 0.00 | 67 | 1019.0 |
| 20260503010018 | 53 | 69 | 0.0 | 1.7 | 0.00 | 0.01 | 0.00 | 66 | 1019.0 |
| 20260503005515 | 53 | 26 | 0.9 | 5.2 | 0.00 | 0.01 | 0.00 | 65 | 1018.9 |
| 20260503005015 | 53 | 188 | 0.9 | 2.6 | 0.00 | 0.01 | 0.00 | 66 | 1018.9 |
| 20260503004516 | 54 | 4 | 1.7 | 4.3 | 0.00 | 0.01 | 0.00 | 65 | 1018.8 |
| 20260503004019 | 54 | 358 | 1.7 | 3.5 | 0.00 | 0.01 | 0.00 | 64 | 1018.8 |
| 20260503003515 | 54 | 17 | 0.9 | 3.5 | 0.00 | 0.01 | 0.00 | 65 | 1018.7 |
| 20260503003015 | 55 | 13 | 1.7 | 4.3 | 0.00 | 0.01 | 0.00 | 64 | 1018.6 |
| 20260503002516 | 55 | 4 | 1.7 | 3.5 | 0.00 | 0.01 | 0.00 | 63 | 1018.5 |
| 20260503002036 | 55 | 63 | 1.7 | 2.6 | 0.00 | 0.01 | 0.00 | 64 | 1018.4 |
| 20260503001516 | 56 | 40 | 1.7 | 4.3 | 0.00 | 0.01 | 0.00 | 63 | 1018.4 |
| 20260503001036 | 56 | 33 | 1.7 | 6.1 | 0.00 | 0.01 | 0.00 | 64 | 1018.4 |
| 20260503000517 | 56 | 31 | 2.6 | 6.1 | 0.00 | 0.01 | 0.00 | 64 | 1018.3 |
| 20260503000016 | 57 | 40 | 1.7 | 4.3 | 0.00 | 0.01 | 0.00 | 64 | 1018.2 |
| 20260502235537 | 57 | 344 | 1.7 | 4.3 | 0.00 | 0.01 | 0.01 | 65 | 1018.1 |
| 20260502235016 | 57 | 47 | 1.7 | 4.3 | 0.00 | 0.01 | 0.01 | 64 | 1018.1 |
| 20260502234537 | 57 | 46 | 1.7 | 5.2 | 0.00 | 0.01 | 0.01 | 63 | 1018.0 |
| 20260502234017 | 57 | 52 | 2.6 | 6.1 | 0.00 | 0.01 | 0.01 | 63 | 1018.0 |
| 20260502233516 | 57 | 14 | 3.5 | 8.7 | 0.00 | 0.01 | 0.01 | 63 | 1018.0 |
| 20260502233017 | 58 | 21 | 2.6 | 8.7 | 0.00 | 0.01 | 0.01 | 63 | 1018.0 |
| 20260502232517 | 58 | 42 | 1.7 | 5.2 | 0.00 | 0.01 | 0.01 | 62 | 1017.9 |
| 20260502232037 | 58 | 25 | 2.6 | 7.0 | 0.00 | 0.01 | 0.01 | 62 | 1018.0 |
| 20260502231517 | 58 | 67 | 3.5 | 7.8 | 0.00 | 0.01 | 0.01 | 61 | 1018.0 |
| 20260502231017 | 58 | 69 | 2.6 | 6.1 | 0.00 | 0.01 | 0.01 | 61 | 1018.0 |
| 20260502230517 | 58 | 3 | 2.6 | 6.1 | 0.00 | 0.01 | 0.01 | 60 | 1017.9 |
| 20260502230017 | 58 | 70 | 1.7 | 4.3 | 0.00 | 0.01 | 0.01 | 61 | 1017.8 |
| 20260502225518 | 58 | 47 | 3.5 | 7.0 | 0.00 | 0.01 | 0.01 | 61 | 1017.8 |
| 20260502225038 | 59 | 45 | 2.6 | 4.3 | 0.00 | 0.01 | 0.01 | 61 | 1017.8 |
| 20260502224517 | 59 | 31 | 2.6 | 6.1 | 0.00 | 0.01 | 0.01 | 60 | 1017.6 |
| 20260502224038 | 58 | 57 | 2.6 | 5.2 | 0.00 | 0.01 | 0.01 | 59 | 1017.5 |
| 20260502223518 | 58 | 10 | 3.5 | 8.7 | 0.00 | 0.01 | 0.01 | 58 | 1017.7 |
| 20260502223018 | 59 | 30 | 4.3 | 7.8 | 0.00 | 0.01 | 0.01 | 59 | 1017.6 |
| 20260502222518 | 60 | 46 | 3.5 | 7.8 | 0.00 | 0.01 | 0.01 | 58 | 1017.4 |
| 20260502222018 | 60 | 37 | 3.5 | 7.8 | 0.00 | 0.01 | 0.01 | 59 | 1017.4 |
| 20260502221518 | 60 | 24 | 2.6 | 6.1 | 0.00 | 0.01 | 0.01 | 59 | 1017.2 |
| 20260502221018 | 60 | 50 | 3.5 | 7.0 | 0.00 | 0.01 | 0.01 | 59 | 1017.2 |
| 20260502220518 | 60 | 47 | 3.5 | 7.8 | 0.00 | 0.01 | 0.01 | 59 | 1017.1 |
| 20260502220018 | 60 | 2 | 2.6 | 6.1 | 0.00 | 0.01 | 0.01 | 59 | 1016.9 |
| 20260502215515 | 59 | 352 | 3.5 | 7.8 | 0.00 | 0.01 | 0.01 | 59 | 1016.9 |
| 20260502215016 | 58 | 9 | 4.3 | 10.4 | 0.00 | 0.01 | 0.01 | 60 | 1017.1 |
| 20260502214516 | 59 | 18 | 4.3 | 8.7 | 0.00 | 0.01 | 0.01 | 61 | 1017.2 |
| 20260502214016 | 61 | 349 | 4.3 | 8.7 | 0.00 | 0.01 | 0.01 | 60 | 1016.8 |
| 20260502213516 | 61 | 8 | 3.5 | 9.6 | 0.00 | 0.01 | 0.01 | 60 | 1016.6 |
| 20260502213016 | 61 | 47 | 3.5 | 7.8 | 0.00 | 0.01 | 0.01 | 59 | 1016.6 |
| 20260502212516 | 61 | 21 | 2.6 | 8.7 | 0.00 | 0.01 | 0.01 | 58 | 1016.5 |
| 20260502212016 | 60 | 26 | 4.3 | 10.4 | 0.00 | 0.01 | 0.01 | 57 | 1016.4 |
| 20260502211516 | 60 | 11 | 3.5 | 8.7 | 0.00 | 0.01 | 0.01 | 59 | 1016.5 |
| 20260502211016 | 60 | 357 | 4.3 | 10.4 | 0.00 | 0.01 | 0.01 | 60 | 1016.7 |
| 20260502210516 | 61 | 1 | 5.2 | 8.7 | 0.00 | 0.01 | 0.01 | 58 | 1016.6 |
| 20260502210016 | 62 | 10 | 4.3 | 8.7 | 0.00 | 0.01 | 0.01 | 56 | 1016.2 |
| 20260502205516 | 62 | 356 | 4.3 | 7.8 | 0.00 | 0.01 | 0.01 | 56 | 1016.0 |
| 20260502205017 | 62 | 16 | 4.3 | 12.2 | 0.00 | 0.01 | 0.01 | 56 | 1015.9 |
| 20260502204517 | 62 | 9 | 5.2 | 9.6 | 0.00 | 0.01 | 0.01 | 56 | 1015.8 |
| 20260502204016 | 62 | 13 | 3.5 | 8.7 | 0.00 | 0.01 | 0.01 | 59 | 1015.8 |
| 20260502203517 | 62 | 53 | 3.5 | 7.0 | 0.00 | 0.01 | 0.01 | 59 | 1015.7 |
| 20260502203037 | 62 | 31 | 4.3 | 7.8 | 0.00 | 0.01 | 0.01 | 59 | 1016.0 |
| 20260502202517 | 64 | 357 | 5.2 | 10.4 | 0.00 | 0.01 | 0.01 | 55 | 1015.8 |
| 20260502202017 | 66 | 17 | 4.3 | 10.4 | 0.00 | 0.01 | 0.01 | 44 | 1015.7 |
| 20260502201517 | 67 | 274 | 4.3 | 12.2 | 0.00 | 0.01 | 0.01 | 37 | 1015.0 |
| 20260502201017 | 67 | 272 | 4.3 | 9.6 | 0.00 | 0.01 | 0.01 | 37 | 1014.9 |
| 20260502200517 | 67 | 293 | 4.3 | 9.6 | 0.00 | 0.01 | 0.01 | 39 | 1014.9 |
| 20260502200057 | 67 | 274 | 4.3 | 8.7 | 0.00 | 0.01 | 0.01 | 37 | 1015.0 |
| 20260502195518 | 66 | 318 | 4.3 | 13.0 | 0.00 | 0.01 | 0.01 | 37 | 1015.0 |
| 20260502195017 | 66 | 326 | 3.5 | 7.0 | 0.00 | 0.01 | 0.01 | 40 | 1015.2 |
| 20260502194517 | 66 | 281 | 4.3 | 12.2 | 0.00 | 0.01 | 0.01 | 40 | 1015.1 |
| 20260502194018 | 65 | 279 | 4.3 | 9.6 | 0.01 | 0.01 | 0.01 | 42 | 1015.1 |
| 20260502193518 | 65 | 257 | 5.2 | 12.2 | 0.01 | 0.01 | 0.01 | 43 | 1015.0 |
| 20260502193038 | 64 | 264 | 6.1 | 12.2 | 0.01 | 0.01 | 0.01 | 45 | 1015.0 |
| 20260502192518 | 64 | 256 | 3.5 | 8.7 | 0.01 | 0.01 | 0.01 | 48 | 1015.5 |
| 20260502192018 | 64 | 263 | 3.5 | 8.7 | 0.01 | 0.01 | 0.01 | 47 | 1015.6 |
| 20260502191538 | 65 | 272 | 4.3 | 10.4 | 0.01 | 0.01 | 0.01 | 46 | 1015.5 |
| 20260502191018 | 65 | 290 | 4.3 | 10.4 | 0.01 | 0.01 | 0.01 | 45 | 1015.0 |
| 20260502190619 | 64 | 259 | 3.5 | 7.8 | 0.01 | 0.01 | 0.01 | 48 | 1014.9 |
| 20260502190019 | 63 | 277 | 3.5 | 7.8 | 0.01 | 0.01 | 0.01 | 49 | 1015.0 |
| 20260502185516 | 63 | 352 | 2.6 | 7.0 | 0.01 | 0.01 | 0.01 | 51 | 1015.3 |
| 20260502185015 | 62 | 294 | 2.6 | 5.2 | 0.01 | 0.01 | 0.01 | 49 | 1015.9 |